ZTF彗星

C/2020 V2 ( ZTF )

English version
Home page
Updated on May 15, 2024

---------------------------------------------------------------------

・ プロフィール

発見日 2020年11月2日
発見光度 19.0等
発見者 Zwicky Transient Facility

・ 写真集

・ 軌道要素

Epoch 2024 Mar. 31.0 TT = JDT 2460400.5
T 2023 May 8.46233 TT                                   Rudenko
q   2.2276747            (2000.0)            P               Q
z  -0.0003626      Peri.  162.39599     +0.69750666     +0.59434055
 +/-0.0000002      Node   212.37171     +0.53391165     -0.05845664
e   1.0008077      Incl.  131.61190     +0.47793599     -0.80208611
>From 5273 observations 2020 Apr. 18-2024 May 12, mean residual 0".9.

・ 星図

・ 光度変化

        m1 = -19.4 + 5 logΔ + 35   log r  [    ,-910]  (              〜2020年11月 9日)
        m1 =   4.0 + 5 logΔ + 10.0 log r  [-910,    ]  (2020年11月 9日〜              )

---------------------------------------------------------------------

軌道要素はM.P.E.C. 2024-J304に掲載されたものです。
星図はステラナビゲータ Ver.10 (アストロアーツ) で作成したものです。
光度グラフはComet for Windowsで作成したものです。

---------------------------------------------------------------------

Copyright(C) Seiichi Yoshida (comet@aerith.net). All rights reserved.